TimeEST,TemperatureF,Dew PointF,Humidity,Sea Level PressureIn,VisibilityMPH,Wind Direction,Wind SpeedMPH,Gust SpeedMPH,PrecipitationIn,Events,Conditions,WindDirDegrees,DateUTC
12:51 AM,37.9,37.9,100,29.58,7.0,Calm,Calm,-,N/A,,Overcast,0,2012-12-11 05:51:00
1:51 AM,39.9,37.9,93,29.61,10.0,Calm,Calm,-,N/A,,Mostly Cloudy,0,2012-12-11 06:51:00
2:08 AM,39.2,37.4,93,29.61,10.0,Calm,Calm,-,N/A,,Mostly Cloudy,0,2012-12-11 07:08:00
2:47 AM,37.4,37.4,100,29.62,10.0,Calm,Calm,-,0.00,Rain,Light Rain,0,2012-12-11 07:47:00
2:51 AM,39.0,37.9,96,29.63,10.0,Calm,Calm,-,0.00,Rain,Light Rain,0,2012-12-11 07:51:00
3:22 AM,39.2,37.4,93,29.63,6.0,NW,4.6,-,0.02,Rain,Light Rain,320,2012-12-11 08:22:00
3:33 AM,39.2,37.4,93,29.63,6.0,NNW,4.6,-,0.04,Rain,Light Rain,330,2012-12-11 08:33:00
3:44 AM,39.2,37.4,93,29.64,10.0,West,3.5,-,0.05,,Overcast,280,2012-12-11 08:44:00
3:51 AM,39.9,37.9,93,29.66,10.0,WNW,4.6,-,0.05,,Overcast,290,2012-12-11 08:51:00
4:30 AM,37.4,37.4,100,29.66,10.0,Calm,Calm,-,0.00,,Overcast,0,2012-12-11 09:30:00
4:51 AM,37.9,37.9,100,29.69,9.0,SSW,3.5,-,0.00,,Overcast,210,2012-12-11 09:51:00
5:51 AM,37.9,37.9,100,29.70,4.0,West,3.5,-,0.00,,Overcast,260,2012-12-11 10:51:00
6:09 AM,39.2,37.4,93,29.69,10.0,WNW,4.6,-,N/A,,Overcast,300,2012-12-11 11:09:00
6:18 AM,39.2,37.4,93,29.69,10.0,NW,4.6,-,N/A,,Overcast,310,2012-12-11 11:18:00
6:51 AM,39.0,37.0,93,29.73,10.0,West,4.6,-,N/A,,Overcast,260,2012-12-11 11:51:00
7:51 AM,39.2,37.4,93,29.74,10.0,WNW,3.5,-,N/A,,Overcast,300,2012-12-11 12:51:00
8:51 AM,41.0,35.1,79,29.80,10.0,WNW,6.9,-,N/A,,Overcast,290,2012-12-11 13:51:00
9:51 AM,41.0,34.0,76,29.83,10.0,WNW,11.5,-,N/A,,Overcast,290,2012-12-11 14:51:00
10:51 AM,41.0,34.0,76,29.84,10.0,NNW,11.5,-,0.00,Rain,Light Rain,330,2012-12-11 15:51:00
11:51 AM,41.0,30.0,65,29.86,10.0,WNW,12.7,-,0.00,,Overcast,300,2012-12-11 16:51:00
12:51 PM,39.2,28.4,65,29.86,10.0,NW,10.4,-,N/A,,Overcast,320,2012-12-11 17:51:00
1:51 PM,39.0,28.0,65,29.90,10.0,NW,11.5,-,N/A,,Mostly Cloudy,310,2012-12-11 18:51:00
2:51 PM,37.0,27.0,67,29.94,10.0,NNW,11.5,-,N/A,,Overcast,330,2012-12-11 19:51:00
3:51 PM,35.6,26.6,70,29.95,10.0,NNW,9.2,-,N/A,,Overcast,330,2012-12-11 20:51:00
4:51 PM,35.1,26.1,70,29.99,10.0,NW,9.2,-,N/A,,Overcast,320,2012-12-11 21:51:00
5:51 PM,33.8,24.8,70,30.00,10.0,NNW,10.4,-,N/A,,Partly Cloudy,330,2012-12-11 22:51:00
6:51 PM,34.0,24.1,67,30.05,10.0,NNW,6.9,-,N/A,,Overcast,340,2012-12-11 23:51:00
7:51 PM,33.1,23.0,66,30.06,10.0,NW,8.1,-,N/A,,Overcast,320,2012-12-12 00:51:00
8:51 PM,33.1,23.0,66,30.08,10.0,NNW,5.8,-,N/A,,Overcast,330,2012-12-12 01:51:00
9:51 PM,32.0,23.0,69,30.10,10.0,NW,4.6,-,N/A,,Overcast,320,2012-12-12 02:51:00
10:51 PM,32.0,19.4,60,30.11,10.0,NNW,4.6,-,N/A,,Mostly Cloudy,330,2012-12-12 03:51:00
11:51 PM,28.9,19.9,69,30.14,10.0,NW,6.9,-,N/A,,Clear,310,2012-12-12 04:51:00